IBE9805 LEMI-LEMD

Flight info

Callsign IBE9805
Flight time 0h 46m
Altitude 30000
Route ALT L150 VILLA
Aircraft A319/M-SDE3FGHIRWY/LB1

Departure

Time 2026-05-05 20:14
Airport Region of Murcia International Airport (LEMI)

Arrival

Time 2026-05-05 21:00
Airport Adolfo Suárez Madrid–Barajas Airport (LEMD)
Time Latitude Longitude Altitude Speed Heading
2026-05-05 20:02 37.80297 -1.13193 647 ft 0 kts 316°
2026-05-05 20:03 37.80283 -1.13177 647 ft 4 kts 311°
2026-05-05 20:03 37.80267 -1.13150 649 ft 4 kts 303°
2026-05-05 20:03 37.80253 -1.13121 650 ft 4 kts 298°
2026-05-05 20:03 37.80240 -1.13090 650 ft 4 kts 301°
2026-05-05 20:04 37.80230 -1.13072 650 ft 0 kts 315°
2026-05-05 20:04 37.80226 -1.13088 651 ft 4 kts 248°
2026-05-05 20:04 37.80232 -1.13113 648 ft 4 kts 308°
2026-05-05 20:04 37.80237 -1.13119 648 ft 0 kts 315°
2026-05-05 20:08 37.80250 -1.13121 648 ft 6 kts
2026-05-05 20:08 37.80306 -1.13051 647 ft 13 kts 52°
2026-05-05 20:08 37.80357 -1.12977 647 ft 10 kts 45°
2026-05-05 20:08 37.80413 -1.12904 647 ft 13 kts 46°
2026-05-05 20:09 37.80456 -1.12809 647 ft 14 kts 103°
2026-05-05 20:09 37.80402 -1.12712 647 ft 13 kts 105°
2026-05-05 20:09 37.80447 -1.12613 649 ft 15 kts 43°
2026-05-05 20:09 37.80525 -1.12508 649 ft 18 kts 45°
2026-05-05 20:10 37.80609 -1.12406 649 ft 16 kts 45°
2026-05-05 20:10 37.80689 -1.12297 651 ft 19 kts 48°
2026-05-05 20:10 37.80761 -1.12205 648 ft 12 kts 44°
2026-05-05 20:10 37.80831 -1.12117 648 ft 16 kts 46°
2026-05-05 20:11 37.80918 -1.12004 647 ft 20 kts 45°
2026-05-05 20:11 37.81008 -1.11887 648 ft 19 kts 45°
2026-05-05 20:11 37.81104 -1.11767 650 ft 20 kts 45°
2026-05-05 20:11 37.81206 -1.11639 652 ft 21 kts 45°
2026-05-05 20:12 37.81306 -1.11501 652 ft 18 kts 43°
2026-05-05 20:12 37.81388 -1.11402 650 ft 15 kts 53°
2026-05-05 20:12 37.81359 -1.11284 649 ft 16 kts 144°
2026-05-05 20:12 37.81247 -1.11272 647 ft 13 kts 191°
2026-05-05 20:13 37.81232 -1.11293 647 ft 0 kts 234°
2026-05-05 20:13 37.81193 -1.11353 648 ft 34 kts 228°
2026-05-05 20:13 37.80834 -1.11792 643 ft 106 kts 225°
2026-05-05 20:13 37.80180 -1.12633 653 ft 159 kts 225°
2026-05-05 20:14 37.79405 -1.13639 1272 ft 159 kts 221°
2026-05-05 20:14 37.78524 -1.14485 1982 ft 160 kts 216°
2026-05-05 20:14 37.77577 -1.15344 2423 ft 178 kts 216°
2026-05-05 20:14 37.76506 -1.16310 2763 ft 201 kts 215°
2026-05-05 20:15 37.75296 -1.17400 3170 ft 226 kts 215°
2026-05-05 20:15 37.73954 -1.18606 3777 ft 244 kts 215°
2026-05-05 20:15 37.72620 -1.19960 4650 ft 248 kts 221°
2026-05-05 20:15 37.71321 -1.21426 5568 ft 252 kts 222°
2026-05-05 20:16 37.70019 -1.22940 6485 ft 256 kts 223°
2026-05-05 20:16 37.68758 -1.24416 7351 ft 259 kts 223°
2026-05-05 20:16 37.67420 -1.25976 8185 ft 265 kts 223°
2026-05-05 20:16 37.66166 -1.27690 8501 ft 267 kts 239°
2026-05-05 20:17 37.65546 -1.29875 8521 ft 266 kts 264°
2026-05-05 20:17 37.65748 -1.32178 8623 ft 270 kts 291°
2026-05-05 20:17 37.66727 -1.34192 9486 ft 271 kts 314°
2026-05-05 20:17 37.68252 -1.35562 10375 ft 272 kts 338°
2026-05-05 20:18 37.70114 -1.35986 11196 ft 276 kts
2026-05-05 20:18 37.71950 -1.35311 11984 ft 279 kts 31°
2026-05-05 20:18 37.73376 -1.33656 12757 ft 283 kts 57°
2026-05-05 20:18 37.74209 -1.31400 13549 ft 285 kts 69°
2026-05-05 20:19 37.74935 -1.29051 14324 ft 288 kts 69°
2026-05-05 20:19 37.75666 -1.26674 15073 ft 292 kts 69°
2026-05-05 20:19 37.76408 -1.24268 15803 ft 295 kts 69°
2026-05-05 20:19 37.77160 -1.21840 16516 ft 298 kts 69°
2026-05-05 20:20 37.77923 -1.19385 17211 ft 302 kts 69°
2026-05-05 20:20 37.78695 -1.16903 17905 ft 305 kts 68°
2026-05-05 20:20 37.79477 -1.14395 18545 ft 309 kts 68°
2026-05-05 20:20 37.80539 -1.11939 18718 ft 330 kts 53°
2026-05-05 20:21 37.82112 -1.09712 18847 ft 350 kts 43°
2026-05-05 20:21 37.83993 -1.07647 19048 ft 364 kts 41°
2026-05-05 20:21 37.85886 -1.05514 19732 ft 365 kts 42°
2026-05-05 20:21 37.87759 -1.03331 20348 ft 367 kts 43°
2026-05-05 20:22 37.89630 -1.01111 20928 ft 370 kts 43°
2026-05-05 20:22 37.91510 -0.98861 21471 ft 374 kts 43°
2026-05-05 20:22 37.93410 -0.96591 22002 ft 377 kts 43°
2026-05-05 20:22 37.95330 -0.94309 22541 ft 380 kts 43°
2026-05-05 20:23 37.97241 -0.92048 23068 ft 382 kts 43°
2026-05-05 20:23 37.99201 -0.89744 23577 ft 386 kts 43°
2026-05-05 20:23 38.01180 -0.87424 24087 ft 388 kts 43°
2026-05-05 20:23 38.03170 -0.85090 24572 ft 391 kts 43°
2026-05-05 20:24 38.05174 -0.82732 25040 ft 394 kts 43°
2026-05-05 20:24 38.07186 -0.80356 25498 ft 397 kts 43°
2026-05-05 20:24 38.09206 -0.77962 25942 ft 399 kts 43°
2026-05-05 20:24 38.11241 -0.75547 26380 ft 401 kts 43°
2026-05-05 20:25 38.13285 -0.73116 26806 ft 404 kts 43°
2026-05-05 20:25 38.15344 -0.70667 27216 ft 407 kts 43°
2026-05-05 20:25 38.17416 -0.68204 27621 ft 409 kts 43°
2026-05-05 20:25 38.19507 -0.65725 28019 ft 412 kts 42°
2026-05-05 20:26 38.21807 -0.63557 28387 ft 414 kts 29°
2026-05-05 20:26 38.24469 -0.62124 28756 ft 416 kts 15°
2026-05-05 20:26 38.27328 -0.61525 29109 ft 418 kts
2026-05-05 20:26 38.30246 -0.61786 29269 ft 426 kts 348°
2026-05-05 20:27 38.33080 -0.62966 29397 ft 433 kts 334°
2026-05-05 20:27 38.35630 -0.64954 29523 ft 440 kts 324°
2026-05-05 20:27 38.38141 -0.67230 29653 ft 446 kts 324°
2026-05-05 20:27 38.40684 -0.69543 29885 ft 449 kts 324°
2026-05-05 20:28 38.43231 -0.71868 29994 ft 449 kts 324°
2026-05-05 20:28 38.48297 -0.76491 30017 ft 447 kts 324°
2026-05-05 20:29 38.53357 -0.81106 30007 ft 446 kts 324°
2026-05-05 20:29 38.58400 -0.85716 30012 ft 446 kts 324°
2026-05-05 20:30 38.63444 -0.90335 30007 ft 446 kts 324°
2026-05-05 20:30 38.68491 -0.94962 30007 ft 446 kts 324°
2026-05-05 20:31 38.73533 -0.99587 29999 ft 445 kts 324°
2026-05-05 20:31 38.78566 -1.04215 29989 ft 446 kts 324°
2026-05-05 20:32 38.83578 -1.08835 29986 ft 446 kts 324°
2026-05-05 20:32 38.88620 -1.13500 29990 ft 447 kts 324°
2026-05-05 20:33 38.93663 -1.18158 29989 ft 447 kts 324°
2026-05-05 20:33 38.98713 -1.22823 29990 ft 448 kts 324°
2026-05-05 20:34 39.03762 -1.27520 29989 ft 448 kts 324°
2026-05-05 20:34 39.08819 -1.32230 29989 ft 448 kts 324°
2026-05-05 20:35 39.13876 -1.36936 29998 ft 449 kts 324°
2026-05-05 20:35 39.18932 -1.41656 30014 ft 448 kts 324°
2026-05-05 20:36 39.23973 -1.46378 30018 ft 448 kts 324°
2026-05-05 20:36 39.28980 -1.51067 30006 ft 447 kts 324°
2026-05-05 20:37 39.34013 -1.55791 30024 ft 447 kts 324°
2026-05-05 20:37 39.39051 -1.60520 30015 ft 447 kts 324°
2026-05-05 20:38 39.44089 -1.65263 30003 ft 447 kts 324°
2026-05-05 20:38 39.49112 -1.70009 30001 ft 448 kts 323°
2026-05-05 20:39 39.54142 -1.74774 29999 ft 447 kts 324°
2026-05-05 20:39 39.59178 -1.79530 29996 ft 448 kts 324°
2026-05-05 20:40 39.64208 -1.84292 29994 ft 448 kts 323°
2026-05-05 20:40 39.69237 -1.89071 29989 ft 448 kts 323°
2026-05-05 20:40 39.71749 -1.91468 29556 ft 448 kts 323°
2026-05-05 20:41 39.74246 -1.93852 28466 ft 453 kts 323°
2026-05-05 20:41 39.76783 -1.96273 27616 ft 452 kts 323°
2026-05-05 20:41 39.79318 -1.98691 26843 ft 449 kts 324°
2026-05-05 20:41 39.81817 -2.01076 26216 ft 442 kts 323°
2026-05-05 20:42 39.84281 -2.03432 25574 ft 437 kts 323°
2026-05-05 20:42 39.86711 -2.05759 24937 ft 431 kts 323°
2026-05-05 20:42 39.89117 -2.08066 24302 ft 426 kts 323°
2026-05-05 20:42 39.91490 -2.10348 23718 ft 421 kts 323°
2026-05-05 20:43 39.93834 -2.12599 23149 ft 416 kts 323°
2026-05-05 20:43 39.96146 -2.14819 22596 ft 410 kts 323°
2026-05-05 20:43 39.98423 -2.17005 22098 ft 403 kts 323°
2026-05-05 20:43 40.00659 -2.19159 21614 ft 397 kts 323°
2026-05-05 20:44 40.02866 -2.21287 21125 ft 392 kts 323°
2026-05-05 20:44 40.05045 -2.23384 20646 ft 387 kts 323°
2026-05-05 20:44 40.07170 -2.25426 20162 ft 382 kts 323°
2026-05-05 20:44 40.09300 -2.27475 19668 ft 378 kts 323°
2026-05-05 20:45 40.13495 -2.31527 18689 ft 372 kts 323°
2026-05-05 20:45 40.15574 -2.33548 18096 ft 372 kts 323°
2026-05-05 20:45 40.17645 -2.35560 17550 ft 370 kts 323°
2026-05-05 20:46 40.19710 -2.37566 16996 ft 370 kts 323°
2026-05-05 20:46 40.21627 -2.39788 16442 ft 368 kts 311°
2026-05-05 20:46 40.23074 -2.42534 15888 ft 367 kts 297°
2026-05-05 20:46 40.23940 -2.45629 15629 ft 357 kts 283°
2026-05-05 20:47 40.24409 -2.48767 15502 ft 344 kts 281°
2026-05-05 20:47 40.24849 -2.51788 15375 ft 332 kts 281°
2026-05-05 20:47 40.25276 -2.54717 15248 ft 322 kts 281°
2026-05-05 20:47 40.25690 -2.57547 15116 ft 312 kts 281°
2026-05-05 20:48 40.26034 -2.60305 14999 ft 302 kts 273°
2026-05-05 20:48 40.26048 -2.63026 14871 ft 296 kts 270°
2026-05-05 20:48 40.26041 -2.65682 14651 ft 291 kts 270°
2026-05-05 20:48 40.26034 -2.68368 14099 ft 299 kts 270°
2026-05-05 20:49 40.26023 -2.71107 13655 ft 301 kts 269°
2026-05-05 20:49 40.26011 -2.73850 13303 ft 300 kts 270°
2026-05-05 20:49 40.26002 -2.76580 12963 ft 299 kts 270°
2026-05-05 20:49 40.25992 -2.79295 12628 ft 298 kts 270°
2026-05-05 20:50 40.25983 -2.82001 12294 ft 297 kts 270°
2026-05-05 20:50 40.25978 -2.83786 12076 ft 295 kts 270°
2026-05-05 20:50 40.25966 -2.87366 11634 ft 293 kts 270°
2026-05-05 20:50 40.25957 -2.90025 11310 ft 291 kts 270°
2026-05-05 20:51 40.25946 -2.92669 10976 ft 289 kts 270°
2026-05-05 20:51 40.25934 -2.95290 10656 ft 287 kts 269°
2026-05-05 20:51 40.25919 -2.97899 10334 ft 286 kts 269°
2026-05-05 20:51 40.25901 -3.00487 10016 ft 284 kts 269°
2026-05-05 20:52 40.25882 -3.03037 9701 ft 283 kts 269°
2026-05-05 20:52 40.25862 -3.05609 9385 ft 282 kts 269°
2026-05-05 20:52 40.25845 -3.08163 9069 ft 280 kts 269°
2026-05-05 20:52 40.25830 -3.10746 8750 ft 279 kts 269°
2026-05-05 20:53 40.25857 -3.13279 8435 ft 277 kts 277°
2026-05-05 20:53 40.26326 -3.15715 8128 ft 276 kts 288°
2026-05-05 20:53 40.26716 -3.17294 7925 ft 275 kts 288°
2026-05-05 20:53 40.27299 -3.19674 7612 ft 274 kts 288°
2026-05-05 20:54 40.28062 -3.22814 7208 ft 272 kts 288°
2026-05-05 20:54 40.28636 -3.25176 6900 ft 271 kts 288°
2026-05-05 20:54 40.29206 -3.27530 6597 ft 270 kts 287°
2026-05-05 20:54 40.29587 -3.29112 6389 ft 269 kts 287°
2026-05-05 20:55 40.30149 -3.31446 6085 ft 268 kts 288°
2026-05-05 20:55 40.30707 -3.33769 5830 ft 266 kts 287°
2026-05-05 20:55 40.31270 -3.36081 5745 ft 267 kts 290°
2026-05-05 20:55 40.32186 -3.38143 5574 ft 265 kts 312°
2026-05-05 20:56 40.33568 -3.39694 5266 ft 259 kts 322°
2026-05-05 20:56 40.34988 -3.41110 4929 ft 252 kts 323°
2026-05-05 20:56 40.36348 -3.42476 4604 ft 234 kts 322°
2026-05-05 20:56 40.37585 -3.43727 4306 ft 222 kts 322°
2026-05-05 20:57 40.39171 -3.45328 3892 ft 209 kts 322°
2026-05-05 20:57 40.39916 -3.46075 3764 ft 199 kts 322°
2026-05-05 20:57 40.40975 -3.47151 3510 ft 185 kts 322°
2026-05-05 20:57 40.41945 -3.48134 3272 ft 166 kts 322°
2026-05-05 20:58 40.42815 -3.49016 3039 ft 150 kts 322°
2026-05-05 20:58 40.43621 -3.49832 2843 ft 144 kts 322°
2026-05-05 20:58 40.44406 -3.50627 2661 ft 141 kts 322°
2026-05-05 20:58 40.45177 -3.51408 2472 ft 140 kts 322°
2026-05-05 20:59 40.45935 -3.52202 2280 ft 139 kts 322°
2026-05-05 20:59 40.46707 -3.52958 2108 ft 138 kts 324°
2026-05-05 20:59 40.47465 -3.53727 1943 ft 137 kts 322°
2026-05-05 20:59 40.48164 -3.54446 1933 ft 111 kts 322°
2026-05-05 21:00 40.48645 -3.54944 1947 ft 71 kts 322°
2026-05-05 21:00 40.49017 -3.55312 1953 ft 63 kts 323°
2026-05-05 21:00 40.49226 -3.55635 1960 ft 27 kts 294°
2026-05-05 21:00 40.49297 -3.55860 1960 ft 30 kts 302°
2026-05-05 21:01 40.49418 -3.55997 1960 ft 23 kts 318°
2026-05-05 21:01 40.49509 -3.56091 1959 ft 14 kts 323°
2026-05-05 21:01 40.49552 -3.56194 1960 ft 5 kts 276°
2026-05-05 21:01 40.49553 -3.56307 1963 ft 19 kts 270°
2026-05-05 21:02 40.49513 -3.56435 1966 ft 10 kts 181°
2026-05-05 21:02 40.49421 -3.56446 1967 ft 13 kts 192°
2026-05-05 21:02 40.49308 -3.56457 1967 ft 20 kts 177°
2026-05-05 21:02 40.49172 -3.56447 1967 ft 23 kts 181°
2026-05-05 21:03 40.49014 -3.56443 1967 ft 24 kts 174°
2026-05-05 21:03 40.48954 -3.56503 1972 ft 12 kts 261°
2026-05-05 21:03 40.48955 -3.56567 1971 ft 5 kts 270°
2026-05-05 21:03 40.48980 -3.56616 1975 ft 1 kts 311°
2026-05-05 21:04 40.49001 -3.56642 1973 ft 3 kts 317°
2026-05-05 21:04 40.49002 -3.56642 1976 ft 0 kts 316°
2026-05-05 21:04 40.48951 -3.56369 1965 ft 0 kts 270°